Location: *
(50.8160°S, 176.0219°W)
Time: 21:59:52
(UTC+00:00)

Daily predictions for brighter satellites

Satellite Brightness Start Highest point End
(mag) Time Altitude Azimuth Time Altitude Azimuth Time Altitude Azimuth
USA 215 4.1 15:05:28 10° ESE 15:10:08 43° SE 15:10:08 43° SE
ATLAS 3B R/B 3.9 15:17:03 31° SSE 15:17:03 31° SSE 15:22:15 10° E
SL-16 R/B 4.1 15:25:19 23° SSE 15:25:19 23° SSE 15:27:22 10° SSE
Cosmos 2237 Rocket 4.5 15:34:16 15° S 15:34:16 15° S 15:35:23 10° SSE
ISS -0.2 15:52:14 11° ENE 15:52:14 11° ENE 15:52:22 10° ENE
SL-16 R/B 4.4 15:46:11 10° SE 15:51:34 28° E 15:56:54 10° NNE
SeaSat 1 4.1 15:48:40 10° SSE 15:50:55 27° SSE 15:50:55 27° SSE
SJ 16-02 3.1 15:57:01 30° ESE 15:57:01 30° ESE 16:00:20 10° ENE
Cosmos 1980 Rocket 4.5 15:57:49 13° S 16:00:24 17° SSE 16:03:56 10° ESE
Cosmos 1943 3.7 16:01:49 55° SSE 16:01:49 55° SSE 16:06:15 10° SSE
Cosmos 962 Rocket 4.4 16:03:56 88° ESE 16:03:56 88° ESE 16:10:23 10° S
Cosmos 2285 Rocket 3.9 16:05:28 88° S 16:05:28 88° S 16:11:58 10° SSE
SMAP 4.4 16:14:10 10° NE 16:18:30 38° ESE 16:22:24 13° S
Cosmos 407 Rocket 3.5 16:25:56 78° S 16:26:17 86° ESE 16:31:37 10° NNE
Cosmos 2084 4.0 16:31:07 53° ESE 16:31:07 53° ESE 16:34:26 10° SE
Cosmos 1603 3.7 16:31:08 39° NNW 16:33:20 78° ENE 16:39:02 10° SSE
USA 281 3.7 16:36:43 10° SSE 16:43:19 62° ENE 16:49:51 10° NNW
SL-8 Rocket 3.9 16:41:20 38° NW 16:43:43 62° WSW 16:49:58 10° S
Cosmos 1809 Rocket 4.5 16:44:07 53° W 16:44:07 53° W 16:49:57 10° NNW
Cosmos 1315 Rocket 4.1 16:41:07 10° NNE 16:44:42 38° E 16:48:20 10° SSE
USA 229 DEB 3.5 16:42:44 36° SW 16:45:36 77° SE 16:51:36 10° NE
USA 229 3.5 16:42:46 36° SW 16:45:39 76° SE 16:51:38 10° NE
Cosmos 1869 3.7 16:47:12 10° N 16:50:36 52° E 16:54:06 10° SSE
Cosmos 2341 Rocket 4.0 16:47:49 26° NW 16:51:23 58° WSW 16:57:36 10° S
Cosmos 2251 Rocket 3.7 16:50:38 23° SSW 16:53:56 72° ESE 16:59:11 10° NNE
CORIOLIS 4.2 16:48:32 10° NNE 16:53:58 83° ESE 16:59:25 10° SSW
USA 215 3.6 16:47:56 10° E 16:54:24 59° SSE 16:57:28 32° SW
Landsat 7 3.7 16:50:21 10° NNE 16:55:03 89° WNW 16:58:27 19° SSW
Cosmos 2218 Rocket 4.0 16:49:55 10° NNW 16:56:10 61° WSW 17:02:25 10° S
Cosmos 1300 Rocket 4.5 16:53:34 10° NNE 16:57:46 49° E 17:02:01 10° SSE
Meteor 2-21 4.4 16:51:50 10° SSW 16:57:48 57° W 17:03:44 10° N
Gbstr 26 Del rocket 3.7 16:56:51 50° W 16:58:16 71° NNW 17:04:41 10° ENE
Resurs 01 Rocket 4.4 16:55:29 10° E 16:58:18 17° ESE 17:01:05 10° SSE
Cosmos 304 Rocket 4.2 17:00:52 43° NW 17:00:52 43° NW 17:04:45 10° N
Cosmos 1025 Rocket 4.0 17:01:58 32° NNW 17:01:58 32° NNW 17:04:26 10° N
ATLAS 2AS CENTAUR R/B 3.1 16:53:55 10° NNW 17:01:01 68° NE 17:08:20 10° SE
Cosmos 1908 Rocket 3.6 16:57:57 10° N 17:02:26 84° E 17:06:57 10° SSE
SL-16 R/B 3.6 17:07:10 21° SSW 17:07:10 21° SSW 17:10:59 10° SSE
ATLAS 3B R/B 2.6 17:04:18 26° SW 17:08:08 76° SE 17:14:46 10° NE
Cosmos 1862 4.4 17:04:53 10° S 17:08:25 40° ESE 17:11:53 10° NE
Cosmos 2221 Rocket 3.5 17:07:08 31° SSW 17:09:08 65° W 17:13:31 10° N
Cosmos 332 Rocket 4.3 17:06:45 15° SSW 17:10:45 61° ESE 17:15:37 10° NE
Cosmos 1697 Rocket 3.1 17:07:48 15° SSW 17:12:36 62° SE 17:18:15 10° NE
Cosmos 1484 Rocket 2.3 17:12:40 10° N 17:16:07 67° WNW 17:16:28 61° WSW
Cosmos 2237 Rocket 4.3 17:16:05 11° SSW 17:16:42 11° SSW 17:18:24 10° S
Cosmos 1782 Rocket 4.1 17:12:30 10° N 17:16:53 62° E 17:21:17 10° SSE
Cosmos 2366 rocket 4.4 17:14:31 10° NW 17:20:26 40° WSW 17:26:23 10° S
Cosmos 1356 Rocket 3.7 17:18:37 10° N 17:22:41 69° E 17:26:50 10° SSE
Cosmos 371 Rocket 3.9 17:24:11 32° W 17:24:23 33° WNW 17:28:39 10° NNW
ISS -3.2 17:25:13 32° NW 17:26:32 57° NNE 17:29:58 10° ESE
Cosmos 2239 Rocket 4.4 17:22:32 10° NNW 17:28:44 74° WSW 17:34:59 10° S
SeaSat 1 3.8 17:26:47 10° S 17:30:23 21° SW 17:30:32 21° SW
SPOT 1/Viking Rocket 3.5 17:26:22 10° NNE 17:31:35 86° WNW 17:36:55 10° SSW
Cosmos 2056 Rocket 4.1 17:27:07 10° N 17:32:10 60° ENE 17:37:21 10° SSE
SJ-12 4.0 17:29:05 10° NNE 17:32:51 70° ESE 17:36:43 10° S
SJ 16-02 1.9 17:33:34 31° WSW 17:34:31 35° WNW 17:38:27 10° NNW
IRS-1C 4.2 17:29:15 10° NNE 17:34:37 80° ESE 17:40:03 10° SSW
Cosmos 1656 4.1 17:32:27 25° WSW 17:35:02 38° WNW 17:40:05 10° N
CZ-2D R/B 3.2 17:32:27 10° NNE 17:35:23 56° ESE 17:38:23 10° S
SL-16 R/B 2.5 17:29:17 10° SSE 17:35:34 64° WSW 17:41:46 10° NNW
SL-16 R/B 4.3 17:31:48 10° SSW 17:35:48 19° SSE 17:39:46 10° ESE
Cosmos 2058 3.1 17:32:09 10° S 17:36:13 70° ESE 17:40:12 10° NNE
Meteor 2-8 Rocket 4.5 17:31:02 10° NNW 17:37:09 61° WSW 17:43:20 10° S
Thor Agena Rocket 3.6 17:33:06 10° NNE 17:38:25 88° WNW 17:43:49 10° SSW
Cosmos 1900 4.4 17:34:40 16° NW 17:38:40 60° SW 17:43:46 10° SE
Cosmos 1821 Rocket 4.4 17:39:29 10° NW 17:45:08 38° WSW 17:50:55 10° S
Cosmos 1943 4.3 17:43:38 21° WSW 17:45:16 24° SW 17:49:54 10° SSE
Cosmos 1980 Rocket 2.9 17:40:10 10° SSW 17:45:44 53° SE 17:51:15 10° NE
Cosmos 968 Rocket 3.6 17:42:29 10° SSW 17:47:40 75° ESE 17:52:48 10° NNE
Cosmos 1727 Rocket 4.4 17:42:14 10° SSW 17:48:04 39° W 17:53:54 10° NNW
CBERS-1 4.5 17:44:42 10° NNW 17:49:32 40° W 17:54:26 10° SSW
Cosmos 1833 Rocket 2.8 17:48:36 10° NNW 17:54:17 82° ENE 18:00:01 10° SSE
Cosmos 1190 Rocket 4.4 17:50:55 13° SW 17:55:18 41° WNW 18:00:15 10° N
Cosmos 1867 3.6 17:49:59 10° NW 17:55:21 61° SW 18:00:45 10° SE
USA 308 1.8 17:55:57 29° ESE 17:55:57 29° ESE 17:57:37 10° E
SMAP 3.8 17:51:43 10° NNW 17:55:55 32° W 18:00:10 10° SSW
CZ-4 R/B 4.3 17:55:27 10° ESE 17:56:35 11° SE 17:57:44 10° SE
Cosmos 2123 Rocket 4.1 17:51:28 10° SSW 17:57:34 56° W 18:03:37 10° NNW
IRS-P3 4.2 17:53:20 10° NNE 17:58:43 89° ESE 18:04:10 10° SSW
USA 307 0.9 17:58:18 26° NW 17:59:17 65° NNE 18:00:44 10° ESE
ARIANE 5 R/B 2.5 17:54:22 10° N 17:59:20 63° WNW 18:04:24 10° SSW
Cosmos 292 Rocket 3.7 17:57:49 10° SSW 18:02:39 84° WNW 18:07:28 10° NNE
Resurs 1-3 3.5 18:02:07 10° N 18:06:26 69° WNW 18:10:50 10° SSW
Cosmos 2084 4.4 18:06:48 17° WSW 18:09:14 28° SSW 18:12:51 10° SSE
Meteor 1-28 Rocket 3.6 18:07:14 10° S 18:10:14 30° WSW 18:13:10 10° NW
Cosmos 2360 Rocket 4.3 18:06:46 10° S 18:10:38 18° SSE 18:14:30 10° ESE
SAR-Lupe-4 4.4 18:07:12 10° NNE 18:10:43 52° ESE 18:14:17 10° S
YAOGAN 1 2.5 18:07:23 10° N 18:11:42 73° WNW 18:16:03 10° SSW
Cosmos 1605 Rocket 4.1 18:06:27 10° N 18:12:43 87° E 18:18:59 10° S
Cosmos 1934 Rocket 4.1 18:08:51 10° NNW 18:15:08 58° WSW 18:21:32 10° S
CZ-2D R/B 3.8 18:12:10 10° NNE 18:16:22 71° ESE 18:20:36 10° S
Cosmos 2333 Rocket 3.9 18:11:41 10° SSW 18:16:34 27° SE 18:21:23 10° E
Cosmos 807 4.3 18:14:21 10° S 18:17:57 84° W 18:21:02 10° N
Cosmos 1420 Rocket 4.4 18:13:08 10° NW 18:18:01 39° SW 18:22:55 10° SSE
Cosmos 1975 Rocket 3.6 18:14:57 10° SSW 18:19:08 38° W 18:23:17 10° NNW
Cosmos 1371 Rocket 4.0 18:14:39 10° NW 18:19:49 64° WSW 18:25:02 10° SSE
Cosmos 1535 Rocket 4.5 18:13:49 10° NNW 18:20:07 80° W 18:26:24 10° S
Cosmos 1315 Rocket 3.9 18:17:20 10° WNW 18:20:23 22° WSW 18:23:28 10° SSW
Cosmos 2219 Rocket 4.4 18:17:03 10° S 18:20:27 16° SSE 18:23:50 10° ESE
NOAA 6 4.3 18:15:33 10° NNE 18:20:44 78° ESE 18:25:58 10° SSW
PSLV R/B 4.0 18:18:53 10° NNE 18:22:53 61° ESE 18:26:58 10° S
Cosmos 972 Rocket 4.0 18:19:31 10° NNW 18:24:34 87° ENE 18:29:34 10° SSE
Terra 4.3 18:22:10 10° E 18:25:16 18° ESE 18:28:23 10° SSE
Okean 2 Rocket 4.4 18:22:22 10° NNE 18:26:35 45° E 18:30:51 10° SSE
Cosmos 2151 Rocket 4.3 18:23:03 10° N 18:27:31 62° E 18:32:02 10° SSE
USA 281 3.7 18:21:33 10° SSE 18:27:33 38° SW 18:33:32 10° WNW
BREEZE-M DEB (TANK) 2.8 18:23:02 10° W 18:28:38 72° N 18:31:02 10° E
Cosmos 44 Rocket 3.1 18:25:41 10° NW 18:30:23 82° SW 18:35:04 10° SE
CZ-4C R/B 3.1 18:22:09 10° NW 18:30:59 89° SW 18:38:05 10° SE
Cosmos 1452 Rocket 4.5 18:26:24 10° N 18:31:33 55° ENE 18:36:45 10° SSE
Blok-L 3.6 18:29:18 10° SW 18:31:38 67° NW 18:36:30 10° NE
Cosmos 1741 Rocket 4.0 18:28:09 10° SSW 18:33:26 79° WNW 18:38:41 10° NNE
Resurs 01 Rocket 1.6 18:29:36 10° N 18:34:04 78° WNW 18:38:35 10° SSW
USA 229 DEB 4.5 18:30:32 10° WSW 18:35:44 26° WNW 18:40:32 10° NNW
USA 229 4.5 18:30:34 10° WSW 18:35:47 27° WNW 18:40:37 10° NNW
UNK 4.4 18:31:48 10° S 18:35:59 33° WSW 18:40:07 10° NW
USA 215 3.4 18:30:40 10° NE 18:37:19 79° NW 18:43:58 10° WSW
Okean 1 Rocket 4.0 18:35:19 10° N 18:39:35 55° E 18:43:53 10° SSE
Spot 4 Rocket 4.1 18:34:57 10° NNE 18:40:05 77° WNW 18:45:19 10° SSW
Cosmos 2084 Rocket 3.8 18:40:24 10° SW 18:44:24 46° NW 18:48:18 10° NNE
NOSS 3-4 (A) 4.4 18:38:50 10° SW 18:46:24 50° SSE 18:52:47 10° ENE
Cosmos 2322 Rocket 3.8 18:41:51 10° SSW 18:46:42 27° SE 18:51:30 10° E
NOSS 3-4 (C) 4.4 18:39:28 10° SW 18:47:01 49° SSE 18:53:24 10° ENE
